• In Czech Republic
  • List of Countries
  • For 7 days
  • Water Temperature
  • Satellite Maps
  • Weather Map
  • Weather Widgets
  • user-avatar
    Login

    Hourly Weather Innsbruck

    Today, 17 November, Friday

    Time Temperature Precipitation Wind Pressure Humidity
    00:00 -7°C° 0 mm 1 mps 594 mmHg 87%
    01:00 -8°C° 0 mm 1 mps 594 mmHg 87%
    02:00 -8°C° 0 mm 1 mps 594 mmHg 86%
    03:00 -8°C° 0 mm 1 mps 594 mmHg 85%
    04:00 -8°C° 0 mm 1 mps 594 mmHg 84%
    05:00 -8°C° 0 mm 1 mps 594 mmHg 83%
    06:00 -9°C° 0 mm 2 mps 594 mmHg 82%
    07:00 -9°C° 0 mm 1 mps 594 mmHg 84%
    08:00 -7°C° 0 mm 1 mps 595 mmHg 82%
    09:00 -4°C° 0 mm 1 mps 596 mmHg 80%
    10:00 -2°C° 0 mm 1 mps 597 mmHg 78%
    11:00 -1°C° 0 mm 1 mps 596 mmHg 80%
    12:00 -2°C° 0 mm 2 mps 596 mmHg 81%
    13:00 -2°C° 0 mm 2 mps 596 mmHg 82%
    14:00 -3°C° 0 mm 2 mps 596 mmHg 85%
    15:00 -4°C° 0 mm 2 mps 596 mmHg 88%
    16:00 -5°C° 0 mm 2 mps 595 mmHg 91%
    17:00 -4°C° 0 mm 1 mps 595 mmHg 92%
    18:00 -6°C° 0 mm 1 mps 595 mmHg 93%
    19:00 -7°C° 0 mm 1 mps 594 mmHg 94%
    20:00 -7°C° 0 mm 1 mps 594 mmHg 93%
    21:00 -7°C° 0 mm 1 mps 594 mmHg 93%
    22:00 -8°C° 0 mm 1 mps 594 mmHg 92%
    23:00 -8°C° 0 mm 1 mps 594 mmHg 92%

    Tomorrow, 18 November, Saturday

    Time Temperature Precipitation Wind Pressure Humidity
    00:00 -8°C° 0 mm 1 mps 594 mmHg 92%
    01:00 -8°C° 0 mm 1 mps 594 mmHg 92%
    02:00 -9°C° 0 mm 1 mps 593 mmHg 92%
    03:00 -9°C° 0 mm 1 mps 593 mmHg 92%
    04:00 -9°C° 0 mm 1 mps 593 mmHg 92%
    05:00 -9°C° 0 mm 1 mps 593 mmHg 92%
    06:00 -9°C° 0 mm 1 mps 593 mmHg 92%
    07:00 -9°C° 0 mm 1 mps 592 mmHg 92%
    08:00 -8°C° 0 mm 1 mps 593 mmHg 89%
    09:00 -6°C° 0 mm 1 mps 594 mmHg 86%
    10:00 -3°C° 0 mm 1 mps 595 mmHg 83%
    11:00 -2°C° 0 mm 1 mps 595 mmHg 81%
    12:00 -2°C° 0 mm 1 mps 595 mmHg 79%
    13:00 -1°C° 0 mm 1 mps 595 mmHg 77%
    14:00 -2°C° 0 mm 1 mps 594 mmHg 80%
    15:00 -3°C° 0 mm 1 mps 593 mmHg 84%
    16:00 -4°C° 0 mm 1 mps 593 mmHg 88%
    17:00 -6°C° 0 mm 1 mps 592 mmHg 89%
    18:00 -8°C° 0 mm 1 mps 592 mmHg 90%
    19:00 -10°C° 0 mm 2 mps 592 mmHg 91%
    20:00 -10°C° 0 mm 2 mps 592 mmHg 87%
    21:00 -10°C° 0 mm 2 mps 592 mmHg 83%
    22:00 -10°C° 0 mm 2 mps 592 mmHg 79%
    23:00 -10°C° 0 mm 2 mps 592 mmHg 78%

    Day after tomorrow, 19 November, Sunday

    Time Temperature Precipitation Wind Pressure Humidity
    00:00 -10°C° 0 mm 2 mps 592 mmHg 76%
    01:00 -10°C° 0 mm 2 mps 591 mmHg 75%
    02:00 -10°C° 0.1 mm 2 mps 591 mmHg 75%
    03:00 -9°C° 0.1 mm 2 mps 591 mmHg 75%
    04:00 -9°C° 0.1 mm 2 mps 591 mmHg 75%
    05:00 -8°C° 0.5 mm 2 mps 591 mmHg 80%
    06:00 -8°C° 0.5 mm 2 mps 591 mmHg 84%
    07:00 -8°C° 0.5 mm 2 mps 590 mmHg 89%
    08:00 -7°C° 0.5 mm 2 mps 591 mmHg 89%
    09:00 -7°C° 0.5 mm 2 mps 591 mmHg 89%
    10:00 -6°C° 0.5 mm 2 mps 592 mmHg 90%
    11:00 -7°C° 0.6 mm 3 mps 592 mmHg 88%
    12:00 -7°C° 0.6 mm 3 mps 591 mmHg 87%
    13:00 -7°C° 0.6 mm 3 mps 591 mmHg 86%
    14:00 -7°C° 0.6 mm 3 mps 592 mmHg 87%
    15:00 -8°C° 0.6 mm 3 mps 592 mmHg 89%
    16:00 -9°C° 0.6 mm 3 mps 592 mmHg 90%
    17:00 -9°C° 0.3 mm 3 mps 592 mmHg 91%
    18:00 -9°C° 0.3 mm 2 mps 593 mmHg 92%
    19:00 -9°C° 0.3 mm 2 mps 593 mmHg 93%
    20:00 -10°C° 0.1 mm 2 mps 593 mmHg 93%
    21:00 -10°C° 0.1 mm 2 mps 593 mmHg 93%
    22:00 -12°C° 0.1 mm 2 mps 593 mmHg 93%
    23:00 -13°C° 0 mm 2 mps 593 mmHg 93%

    20 November, Monday

    Time Temperature Precipitation Wind Pressure Humidity
    00:00 -13°C° 0 mm 2 mps 593 mmHg 92%
    01:00 -14°C° 0 mm 2 mps 593 mmHg 91%
    02:00 -14°C° 0 mm 2 mps 592 mmHg 88%
    03:00 -15°C° 0 mm 2 mps 592 mmHg 86%
    04:00 -15°C° 0 mm 2 mps 592 mmHg 83%
    05:00 -15°C° 0 mm 2 mps 592 mmHg 81%
    06:00 -14°C° 0 mm 2 mps 593 mmHg 78%
    07:00 -14°C° 0 mm 2 mps 593 mmHg 75%
    08:00 -12°C° 0 mm 2 mps 594 mmHg 73%
    09:00 -8°C° 0 mm 2 mps 595 mmHg 71%
    10:00 -6°C° 0 mm 2 mps 596 mmHg 68%
    11:00 -5°C° 0 mm 2 mps 596 mmHg 68%
    12:00 -2°C° 0 mm 1 mps 596 mmHg 69%
    13:00 -1°C° 0 mm 1 mps 596 mmHg 69%
    14:00 -2°C° 0.1 mm 1 mps 595 mmHg 74%
    15:00 -4°C° 0.1 mm 2 mps 595 mmHg 78%
    16:00 -5°C° 0.1 mm 2 mps 594 mmHg 82%
    17:00 -6°C° 0 mm 2 mps 594 mmHg 82%
    18:00 -7°C° 0 mm 2 mps 593 mmHg 82%
    19:00 -8°C° 0 mm 2 mps 593 mmHg 81%
    20:00 -7°C° 0 mm 2 mps 593 mmHg 81%
    21:00 -7°C° 0 mm 2 mps 593 mmHg 80%
    22:00 -7°C° 0 mm 2 mps 593 mmHg 79%
    23:00 -7°C° 0.1 mm 2 mps 593 mmHg 79%

    21 November, Tuesday

    Time Temperature Precipitation Wind Pressure Humidity
    00:00 -6°C° 0.1 mm 2 mps 593 mmHg 79%
    01:00 -6°C° 0.1 mm 2 mps 593 mmHg 79%
    02:00 -6°C° 0.7 mm 2 mps 593 mmHg 82%
    03:00 -5°C° 0.7 mm 2 mps 593 mmHg 86%
    04:00 -5°C° 0.7 mm 2 mps 593 mmHg 90%
    05:00 -5°C° 0.6 mm 2 mps 593 mmHg 90%
    06:00 -5°C° 0.6 mm 2 mps 593 mmHg 91%
    07:00 -5°C° 0.6 mm 2 mps 593 mmHg 92%
    08:00 -4°C° 0.2 mm 2 mps 594 mmHg 91%
    09:00 -3°C° 0.2 mm 2 mps 594 mmHg 91%
    10:00 -2°C° 0.2 mm 2 mps 595 mmHg 90%
    11:00 -1°C° 0 mm 2 mps 595 mmHg 91%
    12:00 -1°C° 0 mm 2 mps 595 mmHg 92%
    13:00 +1°C° 0 mm 2 mps 595 mmHg 92%
    14:00 -1°C° 0 mm 2 mps 595 mmHg 92%
    15:00 -1°C° 0 mm 2 mps 594 mmHg 92%
    16:00 -2°C° 0 mm 2 mps 594 mmHg 92%
    17:00 -3°C° 0 mm 2 mps 594 mmHg 92%
    18:00 -3°C° 0 mm 2 mps 594 mmHg 91%
    19:00 -4°C° 0 mm 2 mps 594 mmHg 91%
    20:00 -4°C° 0 mm 2 mps 594 mmHg 89%
    21:00 -3°C° 0 mm 1 mps 594 mmHg 88%
    22:00 -3°C° 0 mm 1 mps 594 mmHg 86%
    23:00 -5°C° 0 mm 2 mps 594 mmHg 84%

    22 November, Wednesday

    Time Temperature Precipitation Wind Pressure Humidity
    00:00 -5°C° 0 mm 2 mps 594 mmHg 83%
    01:00 -5°C° 0 mm 2 mps 593 mmHg 81%
    02:00 -5°C° 0 mm 2 mps 593 mmHg 80%
    03:00 -5°C° 0 mm 2 mps 593 mmHg 79%
    04:00 -5°C° 0 mm 2 mps 593 mmHg 78%
    05:00 -5°C° 0 mm 2 mps 593 mmHg 77%
    06:00 -5°C° 0 mm 2 mps 593 mmHg 76%
    07:00 -6°C° 0 mm 2 mps 593 mmHg 76%
    08:00 -2°C° 0 mm 1 mps 594 mmHg 77%
    09:00 0°C° 0 mm 1 mps 595 mmHg 78%
    10:00 +1°C° 0 mm 1 mps 596 mmHg 79%
    11:00 +2°C° 0 mm 1 mps 596 mmHg 82%
    12:00 +3°C° 0 mm 1 mps 596 mmHg 86%
    13:00 +4°C° 0 mm 1 mps 596 mmHg 89%
    14:00 +3°C° 0 mm 1 mps 595 mmHg 86%
    15:00 +1°C° 0 mm 2 mps 595 mmHg 83%
    16:00 -1°C° 0 mm 2 mps 594 mmHg 80%
    17:00 -2°C° 0 mm 2 mps 594 mmHg 79%
    18:00 -3°C° 0 mm 2 mps 594 mmHg 79%
    19:00 -4°C° 0 mm 2 mps 593 mmHg 78%
    20:00 -4°C° 0 mm 2 mps 593 mmHg 78%
    21:00 -6°C° 0 mm 3 mps 593 mmHg 78%
    22:00 -6°C° 0 mm 3 mps 593 mmHg 79%
    23:00 -6°C° 0 mm 3 mps 593 mmHg 79%
    Show more